• In Hungary
  • List of Countries
  • For 7 days
  • Water Temperature
  • Satellite Maps
  • Weather Map
  • News
  • Weather Widgets
  • user-avatar
    Login

    Hourly Weather Wlora

    Today, 20 August, Monday

    Time Temperature Precipitation Wind Pressure Humidity
    00:00 +27°C° 0 mm 3 mps 759 mmHg 44%
    01:00 +27°C° 0 mm 2 mps 759 mmHg 43%
    02:00 +27°C° 0 mm 2 mps 758 mmHg 43%
    03:00 +27°C° 0 mm 2 mps 758 mmHg 44%
    04:00 +26°C° 0 mm 2 mps 758 mmHg 44%
    05:00 +27°C° 0 mm 2 mps 758 mmHg 45%
    06:00 +28°C° 0 mm 2 mps 759 mmHg 45%
    07:00 +29°C° 0 mm 2 mps 759 mmHg 45%
    08:00 +31°C° 0 mm 2 mps 759 mmHg 42%
    09:00 +34°C° 0 mm 2 mps 759 mmHg 38%
    10:00 +34°C° 0 mm 1 mps 759 mmHg 34%
    11:00 +36°C° 0 mm 2 mps 759 mmHg 33%
    12:00 +36°C° 0 mm 2 mps 759 mmHg 31%
    13:00 +37°C° 0 mm 3 mps 759 mmHg 30%
    14:00 +35°C° 0 mm 3 mps 758 mmHg 34%
    15:00 +34°C° 0 mm 3 mps 758 mmHg 39%
    16:00 +31°C° 0 mm 3 mps 758 mmHg 44%
    17:00 +30°C° 0.1 mm 2 mps 758 mmHg 49%
    18:00 +29°C° 0.1 mm 2 mps 758 mmHg 54%
    19:00 +28°C° 0.1 mm 2 mps 758 mmHg 60%
    20:00 +27°C° 0.1 mm 2 mps 758 mmHg 61%
    21:00 +27°C° 0.1 mm 2 mps 759 mmHg 62%
    22:00 +27°C° 0.1 mm 2 mps 759 mmHg 63%
    23:00 +26°C° 0 mm 2 mps 759 mmHg 64%

    Tomorrow, 21 August, Tuesday

    Time Temperature Precipitation Wind Pressure Humidity
    00:00 +26°C° 0 mm 2 mps 759 mmHg 64%
    01:00 +26°C° 0 mm 2 mps 759 mmHg 65%
    02:00 +26°C° 0 mm 2 mps 759 mmHg 65%
    03:00 +25°C° 0 mm 2 mps 759 mmHg 65%
    04:00 +25°C° 0 mm 3 mps 759 mmHg 65%
    05:00 +26°C° 0 mm 2 mps 759 mmHg 62%
    06:00 +27°C° 0 mm 2 mps 759 mmHg 59%
    07:00 +28°C° 0 mm 2 mps 759 mmHg 57%
    08:00 +30°C° 0 mm 2 mps 759 mmHg 50%
    09:00 +32°C° 0 mm 1 mps 759 mmHg 43%
    10:00 +34°C° 0 mm 1 mps 760 mmHg 37%
    11:00 +35°C° 0 mm 2 mps 759 mmHg 36%
    12:00 +35°C° 0 mm 2 mps 759 mmHg 36%
    13:00 +35°C° 0 mm 3 mps 759 mmHg 36%
    14:00 +34°C° 0 mm 3 mps 759 mmHg 40%
    15:00 +32°C° 0 mm 2 mps 759 mmHg 44%
    16:00 +31°C° 0 mm 2 mps 759 mmHg 49%
    17:00 +30°C° 0 mm 2 mps 759 mmHg 51%
    18:00 +30°C° 0 mm 1 mps 759 mmHg 53%
    19:00 +29°C° 0 mm 1 mps 759 mmHg 55%
    20:00 +29°C° 0 mm 1 mps 759 mmHg 57%
    21:00 +28°C° 0 mm 1 mps 760 mmHg 59%
    22:00 +27°C° 0 mm 1 mps 760 mmHg 61%
    23:00 +27°C° 0 mm 2 mps 760 mmHg 62%

    Day after tomorrow, 22 August, Wednesday

    Time Temperature Precipitation Wind Pressure Humidity
    00:00 +26°C° 0 mm 2 mps 760 mmHg 63%
    01:00 +26°C° 0 mm 2 mps 760 mmHg 63%
    02:00 +26°C° 0 mm 2 mps 760 mmHg 63%
    03:00 +26°C° 0 mm 2 mps 760 mmHg 63%
    04:00 +26°C° 0 mm 2 mps 760 mmHg 63%
    05:00 +27°C° 0 mm 2 mps 760 mmHg 60%
    06:00 +28°C° 0 mm 2 mps 760 mmHg 57%
    07:00 +29°C° 0 mm 2 mps 760 mmHg 54%
    08:00 +31°C° 0 mm 2 mps 760 mmHg 49%
    09:00 +32°C° 0 mm 1 mps 760 mmHg 43%
    10:00 +34°C° 0 mm 1 mps 760 mmHg 37%
    11:00 +35°C° 0 mm 2 mps 760 mmHg 37%
    12:00 +35°C° 0 mm 2 mps 760 mmHg 37%
    13:00 +35°C° 0 mm 3 mps 760 mmHg 37%
    14:00 +35°C° 0 mm 3 mps 760 mmHg 41%
    15:00 +34°C° 0 mm 3 mps 759 mmHg 45%
    16:00 +32°C° 0 mm 2 mps 759 mmHg 49%
    17:00 +31°C° 0 mm 2 mps 759 mmHg 53%
    18:00 +30°C° 0 mm 2 mps 759 mmHg 57%
    19:00 +28°C° 0 mm 2 mps 760 mmHg 61%
    20:00 +28°C° 0 mm 2 mps 760 mmHg 61%
    21:00 +28°C° 0 mm 2 mps 760 mmHg 61%
    22:00 +27°C° 0 mm 2 mps 760 mmHg 61%
    23:00 +27°C° 0 mm 2 mps 760 mmHg 59%

    23 August, Thursday

    Time Temperature Precipitation Wind Pressure Humidity
    00:00 +27°C° 0 mm 2 mps 760 mmHg 56%
    01:00 +26°C° 0 mm 2 mps 760 mmHg 53%
    02:00 +26°C° 0 mm 2 mps 760 mmHg 50%
    03:00 +26°C° 0 mm 2 mps 759 mmHg 47%
    04:00 +26°C° 0 mm 3 mps 759 mmHg 43%
    05:00 +27°C° 0 mm 2 mps 759 mmHg 42%
    06:00 +28°C° 0 mm 2 mps 759 mmHg 40%
    07:00 +29°C° 0 mm 2 mps 759 mmHg 38%
    08:00 +31°C° 0 mm 2 mps 759 mmHg 34%
    09:00 +32°C° 0 mm 1 mps 759 mmHg 30%
    10:00 +34°C° 0 mm 1 mps 759 mmHg 26%
    11:00 +36°C° 0 mm 2 mps 759 mmHg 26%
    12:00 +36°C° 0 mm 2 mps 759 mmHg 26%
    13:00 +37°C° 0 mm 3 mps 759 mmHg 26%
    14:00 +36°C° 0 mm 3 mps 758 mmHg 31%
    15:00 +34°C° 0 mm 3 mps 758 mmHg 36%
    16:00 +33°C° 0 mm 3 mps 758 mmHg 41%
    17:00 +31°C° 0 mm 2 mps 758 mmHg 46%
    18:00 +30°C° 0 mm 2 mps 758 mmHg 51%
    19:00 +28°C° 0 mm 1 mps 758 mmHg 57%
    20:00 +28°C° 0 mm 1 mps 759 mmHg 57%
    21:00 +27°C° 0 mm 1 mps 759 mmHg 58%
    22:00 +27°C° 0 mm 1 mps 759 mmHg 59%
    23:00 +27°C° 0 mm 1 mps 759 mmHg 57%

    24 August, Friday

    Time Temperature Precipitation Wind Pressure Humidity
    00:00 +27°C° 0 mm 1 mps 759 mmHg 56%
    01:00 +27°C° 0 mm 1 mps 759 mmHg 55%
    02:00 +27°C° 0 mm 1 mps 758 mmHg 54%
    03:00 +26°C° 0 mm 1 mps 758 mmHg 53%
    04:00 +26°C° 0 mm 2 mps 758 mmHg 52%
    05:00 +27°C° 0 mm 2 mps 758 mmHg 50%
    06:00 +28°C° 0 mm 2 mps 758 mmHg 48%
    07:00 +29°C° 0 mm 2 mps 758 mmHg 46%
    08:00 +30°C° 0 mm 2 mps 758 mmHg 43%
    09:00 +32°C° 0 mm 2 mps 758 mmHg 39%
    10:00 +33°C° 0 mm 1 mps 758 mmHg 36%
    11:00 +35°C° 0 mm 2 mps 758 mmHg 35%
    12:00 +35°C° 0 mm 2 mps 758 mmHg 35%
    13:00 +35°C° 0 mm 3 mps 757 mmHg 35%
    14:00 +35°C° 0 mm 3 mps 757 mmHg 37%
    15:00 +34°C° 0 mm 3 mps 757 mmHg 40%
    16:00 +34°C° 0 mm 3 mps 757 mmHg 42%
    17:00 +31°C° 0 mm 2 mps 757 mmHg 47%
    18:00 +30°C° 0 mm 2 mps 757 mmHg 52%
    19:00 +28°C° 0 mm 2 mps 757 mmHg 57%
    20:00 +28°C° 0 mm 2 mps 757 mmHg 59%
    21:00 +27°C° 0 mm 2 mps 758 mmHg 60%
    22:00 +27°C° 0 mm 2 mps 758 mmHg 62%
    23:00 +26°C° 0 mm 2 mps 758 mmHg 62%

    25 August, Saturday

    Time Temperature Precipitation Wind Pressure Humidity
    00:00 +26°C° 0 mm 2 mps 757 mmHg 62%
    01:00 +25°C° 0 mm 2 mps 757 mmHg 63%
    02:00 +25°C° 0 mm 2 mps 757 mmHg 64%
    03:00 +25°C° 0 mm 2 mps 757 mmHg 64%
    04:00 +25°C° 0 mm 1 mps 757 mmHg 65%
    05:00 +26°C° 0 mm 2 mps 757 mmHg 62%
    06:00 +27°C° 0 mm 2 mps 757 mmHg 58%
    07:00 +28°C° 0 mm 3 mps 757 mmHg 55%
    08:00 +29°C° 0 mm 3 mps 758 mmHg 50%
    09:00 +31°C° 0 mm 3 mps 758 mmHg 46%
    10:00 +33°C° 0 mm 3 mps 758 mmHg 41%
    11:00 +34°C° 0 mm 4 mps 757 mmHg 41%
    12:00 +34°C° 0 mm 4 mps 757 mmHg 40%
    13:00 +34°C° 0 mm 4 mps 757 mmHg 40%
    14:00 +34°C° 0 mm 4 mps 757 mmHg 42%
    15:00 +34°C° 0 mm 4 mps 757 mmHg 44%
    16:00 +34°C° 0 mm 4 mps 757 mmHg 46%
    17:00 +32°C° 0 mm 4 mps 757 mmHg 52%
    18:00 +29°C° 0 mm 3 mps 757 mmHg 59%
    19:00 +28°C° 0 mm 3 mps 757 mmHg 65%
    20:00 +27°C° 0 mm 3 mps 757 mmHg 66%
    21:00 +27°C° 0 mm 3 mps 757 mmHg 68%
    22:00 +26°C° 0 mm 3 mps 758 mmHg 69%
    23:00 +26°C° 0 mm 3 mps 758 mmHg 71%
    Show more